This is the latest recevied weather packets stored in our database for station/object OK2ZAW-19. If no packets are shown the sender has not sent any weather packets the latest 10 day(s).
| Time | Temp. | Humidity | Pressure | Rain* | Wind** | Luminosity | Snow |
|---|---|---|---|---|---|---|---|
| 1776965512 | 13.33° C | 41% | 1017.7 hPa | - | - | 337 W/m² | - |
| 1776965201 | 13.33° C | 40% | 1017.5 hPa | - | - | 337 W/m² | - |
| 1776964580 | 13.89° C | 39% | 1017.6 hPa | - | - | 337 W/m² | - |
| 1776964269 | 14.44° C | 38% | 1017.6 hPa | - | - | 337 W/m² | - |
| 1776963958 | 15° C | 37% | 1017.5 hPa | - | - | 337 W/m² | - |
| 1776963647 | 15° C | 37% | 1017.4 hPa | - | - | 337 W/m² | - |
| 1776963336 | 15.56° C | 36% | 1017.4 hPa | - | - | 337 W/m² | - |
| 1776963026 | 15° C | 36% | 1017.6 hPa | - | - | 337 W/m² | - |
| 1776962715 | 16.11° C | 35% | 1017.4 hPa | - | - | 337 W/m² | - |
| 1776962093 | 16.11° C | 33% | 1017.5 hPa | - | - | 337 W/m² | - |
| 1776961782 | 16.67° C | 33% | 1017.5 hPa | - | - | 338 W/m² | - |
| 1776961471 | 16.67° C | 33% | 1017.5 hPa | - | - | 338 W/m² | - |
| 1776960848 | 17.22° C | 32% | 1017.6 hPa | - | - | 337 W/m² | - |
| 1776960537 | 16.67° C | 32% | 1017.6 hPa | - | - | 337 W/m² | - |
| 1776959915 | 17.22° C | 31% | 1017.5 hPa | - | - | 338 W/m² | - |
| 1776959604 | 17.22° C | 31% | 1017.5 hPa | - | - | 337 W/m² | - |
| 1776958982 | 16.67° C | 31% | 1017.7 hPa | - | - | 338 W/m² | - |
| 1776958671 | 17.22° C | 29% | 1017.7 hPa | - | - | 335 W/m² | - |
| 1776958048 | 16.67° C | 29% | 1017.8 hPa | - | - | 337 W/m² | - |
| 1776957737 | 17.22° C | 30% | 1017.7 hPa | - | - | 338 W/m² | - |
| 1776957426 | 16.67° C | 29% | 1017.6 hPa | - | - | 338 W/m² | - |
| 1776957115 | 16.11° C | 29% | 1017.6 hPa | - | - | 338 W/m² | - |
| 1776956804 | 17.22° C | 29% | 1017.6 hPa | - | - | 338 W/m² | - |
| 1776956493 | 16.67° C | 29% | 1017.5 hPa | - | - | 337 W/m² | - |
| 1776956182 | 17.22° C | 29% | 1017.7 hPa | - | - | 337 W/m² | - |
* Rain since midnight (hover to see other rain measurements)
** Current wind speed in m/s (hover to see current wind gust speed)